Погода в Сарнах

Украина / Ровненская область     51°20′06″N   26°37′02″E
темп.,
°C
ветер,
м/с
пор.,
м/с
влажн.,
%
обл.,
%
осадки,
мм/ч
давл.,
гПа
погр.,
м
5 марта, пт
пт523:00+2зсз4884100 0.1 1012535
02:00+1зсз369295 0.1 1012285
05:000ссв4780100 0.3 1013476
08:00−1ссв4678100 0.3 1014458
11:00+1ссв3566100 0.0 1015786
14:00+2ссв5654100 0.0 10161117
17:00+1с3653100 0.0 10181010
20:00−1ссз2670100 0.0 1021159
6 марта, сб
сб623:00−2с378057 0.0 1022360
02:00−3сз237128 0.0 1024101
05:00−3з24630 0.0 1023152
08:00−2зюз47560 0.0 1025376
11:00+1сз685590 0.2 10251407
14:00+1сз794260 0.3 10251879
17:000сз574827 0.0 10261479
20:00−3з375613 0.0 1026156
7 марта, вс
вс723:00−2зюз410631 0.0 1025333
02:00−2зюз613641 0.0 1023533
05:00−1зюз8156454 0.0 1020811
08:000з9166878 0.0 10181206
11:00+2з101568100 0.0 10171314
14:00+3з91368100 0.1 10161417
17:00+2з81369100 0.1 10141271
20:00−1з6147990 0.1 1013805
8 марта, пн
пн823:00−1з7148168 0.0 1013793
02:00−1з7138383 0.0 1012831
05:00−1зсз5996100 0.6 1012607
08:00−2зсз3672100 1.2 1013465
11:00+1сз3552100 0.0 10131245
14:00+2сз465099 0.1 10131531
17:00+1сз366093 0.2 1013863
20:00−2сз369097 0.6 1015313
9 марта, вт
вт923:00−3сз498660 0.1 1016450
02:00−4сз488150 0.1 1018514
05:00−5ссз687567 0.1 1019922
08:00−6с586082 0.2 10221101
11:00−4с56490 0.0 10241195
14:00−2с45390 0.0 10251282
17:00−3с34400 0.0 10251251
20:00−5св235431 0.0 1026108